CZ-4B R/B - Orbit

View from above orbital plane
View from above orbital plane
View from above satellite
View from above satellite

Ground track
Ground track

The orbit data is extracted from the following two-line orbital elements,

1 33410U 08053C   13169.12904919  .00001810  00000-0  15619-3 0  5252
2 33410 097.5439 155.6177 0136543 042.0457 319.1144 14.91543428252548
Epoch (UTC): 18 June 2013 03:05:49
Eccentricity: 0.0136543
inclination: 97.5439°
perigee height: 498 km
apogee height: 688 km
right ascension of ascending node: 155.6177°
argument of perigee: 42.0457°
revolutions per day: 14.91543428
mean anomaly at epoch: 319.1144°
orbit number at epoch: 25254

The dashed part of the orbit path shows where the satellite is in the earth's shadow,  

Developed and maintained by Chris Peat, Heavens-Above GmbH. Please read the updated FAQ before sending e-mail. Imprint. DLR